Regional Weather Roundup
Issued by NWS

Home | Current Version | Previous Version | Text Only | Print | Product List | Glossary Off
Versions: 1 2 3 4 5 6 7 8 9 10 11 12 13 14 15 16 17 18 19 20 21 22 23 24 25 26 27 28 29 30 31 32 33 34 35 36 37 38 39 40 41 42 43 44 45 46 47 48 49 50

000
ASUS43 KFSD 172202
RWRSD

WEATHER ROUNDUP FOR SOUTH DAKOTA
NATIONAL WEATHER SERVICE SIOUX FALLS SD
500 PM CDT THU APR 17 2014

NOTE: "FAIR" INDICATES FEW OR NO CLOUDS BELOW 12,000 FEET WITH NO
SIGNIFICANT WEATHER AND/OR OBSTRUCTIONS TO VISIBILITY.


SDZ001>005-009-010-012>017-172300-
NORTHWEST AND NORTH CENTRAL SOUTH DAKOTA

CITY           SKY/WX    TMP DP  RH WIND       PRES   REMARKS
FAITH            N/A     47  28  47 SE24G31   30.07F
MOBRIDGE       CLOUDY    45  24  43 S16       30.15F
$$

SDZ012>016-024>037-041>051-057-063-072>074-172300-
SOUTHWEST AND SOUTH CENTRAL SOUTH DAKOTA

CITY           SKY/WX    TMP DP  RH WIND       PRES   REMARKS
RAPID CTY ARPT MOSUNNY   52  35  52 S21G28    30.00F
PIERRE         CLOUDY    45  23  42 SE17G23   30.18F
CUSTER         MOSUNNY   44  34  67 VRB6      30.00F
ELLSWORTH AFB  MOSUNNY   53  35  51 SE21G28   30.00F
PHILIP         CLOUDY    50  32  50 SE18G29   30.09F
PINE RIDGE     SUNNY     51  35  54 S16       30.05F
WINNER         CLOUDY    42  29  59 SE14      30.19F
$$

SDZ004>011-016>023-039-040-172300-
NORTHEAST SOUTH DAKOTA

CITY           SKY/WX    TMP DP  RH WIND       PRES   REMARKS
ABERDEEN       PTSUNNY   45  19  35 S10       30.25F
WATERTOWN      SUNNY     39  14  36 NW3       30.26F
SISSETON         N/A     42  20  41 S3        30.27F
$$

SDZ017-020-022-023-036>040-048>070-172300-
SOUTHEAST SOUTH DAKOTA

CITY           SKY/WX    TMP DP  RH WIND       PRES   REMARKS
SIOUX FALLS    PTSUNNY   45  21  38 CALM      30.27F
HURON          MOSUNNY   45  18  34 E7        30.26F
CHAMBERLAIN      N/A     47  19  33 S15       30.21F
MITCHELL       CLOUDY    48  16  27 SW6       30.27F
YANKTON        MOSUNNY   48  21  34 CALM      30.27S
$$

ABBREVIATIONS USED IN REMARKS
   TC - TEMPERATURE IN CELSIUS
  WCI - WIND CHILL INDEX
   HX - HEAT INDEX
  VSB - VISIBILITY




USA.gov is the U.S. government's official web portal to all federal, state and local government web resources and services.